| time (UTC) | temp C | wind direction | speed KPH | gust KPH | rain 1hr cm | rain 24hr cm | rain mn cm | humidity % | barometer mb |
| 20260507170050 | 17 | 287 | 14.5 | 35.4 | 0.00 | 0.00 | 0.00 | 61 | 1014.9 |
| 20260507165529 | 16 | 257 | 17.7 | 35.4 | 0.00 | 0.00 | 0.00 | 57 | 1015.1 |
| 20260507165029 | 16 | 262 | 24.1 | 35.4 | 0.00 | 0.00 | 0.00 | 56 | 1015.1 |
| 20260507164545 | 16 | 242 | 24.1 | 37.0 | 0.00 | 0.00 | 0.00 | 58 | 1015.1 |
| 20260507164029 | 16 | 241 | 20.9 | 37.0 | 0.00 | 0.00 | 0.00 | 58 | 1015.3 |
| 20260507163529 | 16 | 238 | 20.9 | 43.5 | 0.00 | 0.00 | 0.00 | 58 | 1015.4 |
| 20260507163043 | 16 | 240 | 22.5 | 43.5 | 0.00 | 0.00 | 0.00 | 57 | 1015.6 |
| 20260507162533 | 16 | 223 | 22.5 | 37.0 | 0.00 | 0.00 | 0.00 | 56 | 1015.6 |
| 20260507162033 | 16 | 233 | 24.1 | 38.6 | 0.00 | 0.00 | 0.00 | 58 | 1015.8 |
| 20260507161547 | 16 | 239 | 22.5 | 38.6 | 0.00 | 0.00 | 0.00 | 58 | 1015.9 |
| 20260507161029 | 16 | 237 | 25.7 | 38.6 | 0.00 | 0.00 | 0.00 | 58 | 1015.9 |
| 20260507160531 | 15 | 244 | 19.3 | 33.8 | 0.00 | 0.00 | 0.00 | 60 | 1016.0 |
| 20260507160046 | 15 | 244 | 17.7 | 37.0 | 0.00 | 0.00 | 0.00 | 60 | 1015.9 |
| 20260507155533 | 15 | 242 | 22.5 | 37.0 | 0.00 | 0.00 | 0.00 | 62 | 1016.1 |
| 20260507155029 | 15 | 246 | 16.1 | 29.0 | 0.00 | 0.00 | 0.00 | 62 | 1016.0 |
| 20260507154545 | 15 | 248 | 19.3 | 33.8 | 0.00 | 0.00 | 0.00 | 63 | 1016.0 |
| 20260507154030 | 15 | 278 | 17.7 | 33.8 | 0.00 | 0.00 | 0.00 | 64 | 1016.0 |
| 20260507153529 | 15 | 240 | 17.7 | 35.4 | 0.00 | 0.00 | 0.00 | 62 | 1016.1 |
| 20260507153042 | 14 | 264 | 14.5 | 35.4 | 0.00 | 0.00 | 0.00 | 65 | 1016.1 |
| 20260507152529 | 14 | 261 | 17.7 | 35.4 | 0.00 | 0.00 | 0.00 | 64 | 1016.1 |
| 20260507152031 | 14 | 242 | 17.7 | 32.2 | 0.00 | 0.00 | 0.00 | 65 | 1016.3 |
| 20260507151548 | 14 | 275 | 16.1 | 30.6 | 0.00 | 0.00 | 0.00 | 66 | 1016.3 |
| 20260507151033 | 13 | 250 | 16.1 | 32.2 | 0.00 | 0.00 | 0.00 | 67 | 1016.5 |
| 20260507150529 | 13 | 246 | 17.7 | 40.2 | 0.00 | 0.00 | 0.00 | 67 | 1016.4 |
| 20260507150047 | 13 | 243 | 17.7 | 40.2 | 0.00 | 0.00 | 0.00 | 66 | 1016.5 |
| 20260507145529 | 13 | 259 | 16.1 | 30.6 | 0.00 | 0.00 | 0.00 | 68 | 1016.6 |
| 20260507145031 | 13 | 248 | 16.1 | 30.6 | 0.00 | 0.00 | 0.00 | 67 | 1016.6 |
| 20260507144607 | 13 | 269 | 16.1 | 30.6 | 0.00 | 0.00 | 0.00 | 68 | 1016.5 |
| 20260507144030 | 13 | 281 | 19.3 | 30.6 | 0.00 | 0.00 | 0.00 | 67 | 1016.7 |
| 20260507143529 | 13 | 250 | 17.7 | 27.4 | 0.00 | 0.00 | 0.00 | 68 | 1016.7 |
| 20260507143048 | 12 | 250 | 12.9 | 30.6 | 0.00 | 0.00 | 0.00 | 70 | 1016.8 |
| 20260507142529 | 12 | 278 | 16.1 | 30.6 | 0.00 | 0.00 | 0.00 | 70 | 1016.7 |
| 20260507142034 | 12 | 280 | 17.7 | 29.0 | 0.00 | 0.00 | 0.00 | 69 | 1017.0 |
| 20260507141602 | 12 | 244 | 12.9 | 33.8 | 0.00 | 0.00 | 0.00 | 72 | 1016.9 |
| 20260507141030 | 12 | 257 | 11.3 | 33.8 | 0.00 | 0.00 | 0.00 | 73 | 1017.0 |
| 20260507140534 | 12 | 257 | 14.5 | 33.8 | 0.00 | 0.00 | 0.00 | 72 | 1016.8 |
| 20260507140042 | 11 | 265 | 17.7 | 25.7 | 0.00 | 0.00 | 0.00 | 73 | 1016.8 |
| 20260507135533 | 11 | 259 | 12.9 | 30.6 | 0.00 | 0.00 | 0.00 | 73 | 1016.8 |
| 20260507135030 | 11 | 252 | 17.7 | 30.6 | 0.00 | 0.00 | 0.00 | 73 | 1016.8 |
| 20260507134542 | 11 | 254 | 11.3 | 25.7 | 0.00 | 0.00 | 0.00 | 75 | 1016.8 |
| 20260507134031 | 11 | 248 | 14.5 | 25.7 | 0.00 | 0.00 | 0.00 | 74 | 1017.0 |
| 20260507133530 | 11 | 253 | 11.3 | 22.5 | 0.00 | 0.00 | 0.00 | 74 | 1016.8 |
| 20260507133047 | 10 | 245 | 11.3 | 24.1 | 0.00 | 0.00 | 0.00 | 76 | 1016.6 |
| 20260507132530 | 10 | 252 | 12.9 | 24.1 | 0.00 | 0.00 | 0.00 | 77 | 1016.7 |
| 20260507132029 | 10 | 234 | 12.9 | 24.1 | 0.00 | 0.00 | 0.00 | 78 | 1016.6 |
| 20260507131544 | 10 | 269 | 12.9 | 24.1 | 0.00 | 0.00 | 0.00 | 77 | 1016.6 |
| 20260507131031 | 10 | 252 | 11.3 | 19.3 | 0.00 | 0.00 | 0.00 | 79 | 1016.7 |
| 20260507130534 | 10 | 243 | 11.3 | 20.9 | 0.00 | 0.00 | 0.00 | 80 | 1016.6 |
| 20260507130046 | 9 | 247 | 9.7 | 20.9 | 0.00 | 0.00 | 0.00 | 80 | 1016.6 |
| 20260507125530 | 9 | 234 | 9.7 | 19.3 | 0.00 | 0.00 | 0.00 | 81 | 1016.6 |
| 20260507125033 | 9 | 249 | 11.3 | 19.3 | 0.00 | 0.00 | 0.00 | 82 | 1016.7 |
| 20260507124540 | 8 | 360 | 6.4 | 16.1 | 0.00 | 0.00 | 0.00 | 83 | 1016.8 |
| 20260507124033 | 8 | 240 | 8.0 | 16.1 | 0.00 | 0.00 | 0.00 | 83 | 1016.7 |
| 20260507123530 | 8 | 243 | 9.7 | 16.1 | 0.00 | 0.00 | 0.00 | 84 | 1016.8 |
| 20260507123047 | 8 | 238 | 9.7 | 16.1 | 0.00 | 0.00 | 0.00 | 84 | 1017.0 |
| 20260507122529 | 7 | 225 | 8.0 | 16.1 | 0.00 | 0.00 | 0.00 | 85 | 1016.8 |
| 20260507122030 | 7 | 360 | 4.8 | 12.9 | 0.00 | 0.00 | 0.00 | 86 | 1016.8 |
| 20260507121542 | 7 | 360 | 4.8 | 12.9 | 0.00 | 0.00 | 0.00 | 86 | 1016.7 |
| 20260507121030 | 7 | 360 | 8.0 | 12.9 | 0.00 | 0.00 | 0.00 | 86 | 1016.5 |
| 20260507120532 | 6 | 360 | 6.4 | 12.9 | 0.00 | 0.00 | 0.00 | 86 | 1016.6 |
| 20260507120047 | 6 | 360 | 6.4 | 14.5 | 0.00 | 0.00 | 0.00 | 86 | 1016.5 |
| 20260507115529 | 6 | 360 | 8.0 | 16.1 | 0.00 | 0.00 | 0.00 | 87 | 1016.5 |
| 20260507115029 | 6 | 228 | 9.7 | 16.1 | 0.00 | 0.00 | 0.00 | 87 | 1016.5 |
| 20260507114550 | 6 | 238 | 9.7 | 17.7 | 0.00 | 0.00 | 0.00 | 87 | 1016.5 |
| 20260507114034 | 6 | 241 | 9.7 | 17.7 | 0.00 | 0.00 | 0.00 | 87 | 1016.6 |
| 20260507113533 | 6 | 238 | 9.7 | 17.7 | 0.00 | 0.00 | 0.00 | 87 | 1016.5 |
| 20260507113041 | 5 | 241 | 9.7 | 14.5 | 0.00 | 0.00 | 0.00 | 87 | 1016.4 |
| 20260507112533 | 5 | 238 | 8.0 | 16.1 | 0.00 | 0.00 | 0.00 | 87 | 1016.3 |
| 20260507112030 | 5 | 243 | 9.7 | 16.1 | 0.00 | 0.00 | 0.00 | 88 | 1016.4 |
| 20260507111543 | 5 | 239 | 9.7 | 16.1 | 0.00 | 0.00 | 0.00 | 87 | 1016.5 |
| 20260507111029 | 5 | 238 | 8.0 | 16.1 | 0.00 | 0.00 | 0.00 | 87 | 1016.5 |
| 20260507110530 | 5 | 240 | 8.0 | 14.5 | 0.00 | 0.00 | 0.00 | 87 | 1016.5 |
| 20260507110047 | 5 | 241 | 8.0 | 14.5 | 0.00 | 0.00 | 0.00 | 87 | 1016.5 |
| 20260507105529 | 5 | 240 | 6.4 | 14.5 | 0.00 | 0.00 | 0.00 | 87 | 1016.5 |
| 20260507105034 | 5 | 242 | 6.4 | 12.9 | 0.00 | 0.00 | 0.00 | 86 | 1016.4 |
| 20260507104546 | 5 | 238 | 6.4 | 12.9 | 0.00 | 0.00 | 0.00 | 86 | 1016.4 |
| 20260507104031 | 5 | 243 | 6.4 | 12.9 | 0.00 | 0.00 | 0.00 | 85 | 1016.5 |
| 20260507103530 | 5 | 238 | 6.4 | 14.5 | 0.00 | 0.00 | 0.00 | 85 | 1016.5 |
| 20260507103044 | 6 | 236 | 6.4 | 14.5 | 0.00 | 0.00 | 0.00 | 85 | 1016.6 |
| 20260507102529 | 6 | 222 | 6.4 | 14.5 | 0.00 | 0.00 | 0.00 | 85 | 1016.6 |
| 20260507102031 | 6 | 220 | 6.4 | 12.9 | 0.00 | 0.00 | 0.00 | 85 | 1016.6 |
| 20260507101547 | 5 | 232 | 6.4 | 12.9 | 0.00 | 0.00 | 0.00 | 85 | 1016.6 |
| 20260507101030 | 5 | 235 | 6.4 | 11.3 | 0.00 | 0.00 | 0.00 | 84 | 1016.6 |
| 20260507100530 | 6 | 230 | 8.0 | 14.5 | 0.00 | 0.00 | 0.00 | 84 | 1016.7 |
| 20260507100043 | 6 | 244 | 6.4 | 14.5 | 0.00 | 0.00 | 0.00 | 84 | 1016.7 |
| 20260507095530 | 6 | 360 | 8.0 | 12.9 | 0.00 | 0.00 | 0.00 | 84 | 1016.9 |
| 20260507095033 | 6 | 246 | 8.0 | 12.9 | 0.00 | 0.00 | 0.00 | 84 | 1016.8 |
| 20260507094547 | 6 | 360 | 8.0 | 12.9 | 0.00 | 0.00 | 0.00 | 83 | 1016.8 |
| 20260507094029 | 6 | 360 | 8.0 | 12.9 | 0.00 | 0.00 | 0.00 | 83 | 1016.9 |
| 20260507093529 | 6 | 238 | 6.4 | 12.9 | 0.00 | 0.00 | 0.00 | 82 | 1016.8 |
| 20260507093046 | 6 | 242 | 6.4 | 14.5 | 0.00 | 0.00 | 0.00 | 82 | 1016.9 |
| 20260507092529 | 6 | 242 | 6.4 | 14.5 | 0.00 | 0.00 | 0.00 | 82 | 1016.8 |
| 20260507092030 | 6 | 360 | 6.4 | 12.9 | 0.00 | 0.00 | 0.00 | 83 | 1016.9 |
| 20260507091548 | 6 | 360 | 8.0 | 12.9 | 0.00 | 0.00 | 0.00 | 82 | 1016.8 |
| 20260507091032 | 6 | 236 | 6.4 | 12.9 | 0.00 | 0.00 | 0.00 | 81 | 1017.0 |
| 20260507090532 | 6 | 360 | 6.4 | 12.9 | 0.00 | 0.00 | 0.00 | 81 | 1017.0 |
| 20260507090040 | 6 | 248 | 4.8 | 11.3 | 0.00 | 0.00 | 0.00 | 81 | 1017.0 |
| 20260507085529 | 6 | 360 | 4.8 | 11.3 | 0.00 | 0.00 | 0.00 | 81 | 1017.0 |
| 20260507085030 | 6 | 360 | 4.8 | 11.3 | 0.00 | 0.00 | 0.00 | 81 | 1017.0 |
| 20260507084544 | 6 | 360 | 3.2 | 11.3 | 0.00 | 0.00 | 0.00 | 81 | 1017.0 |
| 20260507084029 | 6 | 245 | 3.2 | 9.7 | 0.00 | 0.00 | 0.00 | 81 | 1017.0 |
| 20260507083529 | 6 | 244 | 4.8 | 12.9 | 0.00 | 0.00 | 0.00 | 80 | 1017.0 |
| 20260507083043 | 6 | 360 | 6.4 | 12.9 | 0.00 | 0.00 | 0.00 | 79 | 1017.0 |
| 20260507082530 | 7 | 360 | 4.8 | 12.9 | 0.00 | 0.00 | 0.00 | 78 | 1017.1 |
| 20260507082029 | 7 | 252 | 4.8 | 12.9 | 0.00 | 0.00 | 0.00 | 78 | 1017.1 |
| 20260507081542 | 7 | 360 | 4.8 | 8.0 | 0.00 | 0.00 | 0.00 | 78 | 1017.1 |
| 20260507081029 | 7 | 360 | 4.8 | 12.9 | 0.00 | 0.00 | 0.00 | 78 | 1017.2 |
| 20260507080529 | 7 | 360 | 4.8 | 12.9 | 0.00 | 0.00 | 0.00 | 77 | 1017.1 |
| 20260507080044 | 7 | 252 | 4.8 | 9.7 | 0.00 | 0.00 | 0.00 | 77 | 1017.1 |
| 20260507075529 | 7 | 259 | 3.2 | 12.9 | 0.00 | 0.00 | 0.00 | 76 | 1017.1 |
| 20260507075033 | 7 | 360 | 4.8 | 12.9 | 0.00 | 0.00 | 0.00 | 76 | 1017.2 |
| 20260507074541 | 7 | 245 | 4.8 | 12.9 | 0.00 | 0.00 | 0.00 | 76 | 1017.2 |
| 20260507074030 | 7 | 248 | 4.8 | 11.3 | 0.00 | 0.00 | 0.00 | 76 | 1017.3 |
| 20260507073532 | 7 | 249 | 4.8 | 9.7 | 0.00 | 0.00 | 0.00 | 76 | 1017.3 |
| 20260507073040 | 7 | 260 | 4.8 | 8.0 | 0.00 | 0.00 | 0.00 | 76 | 1017.3 |
| 20260507072530 | 7 | 360 | 3.2 | 9.7 | 0.00 | 0.00 | 0.00 | 75 | 1017.4 |
| 20260507072029 | 7 | 360 | 4.8 | 11.3 | 0.00 | 0.00 | 0.00 | 75 | 1017.4 |
| 20260507071538 | 7 | 360 | 3.2 | 11.3 | 0.00 | 0.00 | 0.00 | 74 | 1017.4 |
| 20260507071029 | 7 | 360 | 4.8 | 11.3 | 0.00 | 0.00 | 0.00 | 74 | 1017.4 |
| 20260507070533 | 7 | 244 | 4.8 | 11.3 | 0.00 | 0.00 | 0.00 | 73 | 1017.5 |
| 20260507070044 | 7 | 243 | 4.8 | 14.5 | 0.00 | 0.00 | 0.00 | 73 | 1017.5 |
| 20260507065529 | 8 | 248 | 4.8 | 14.5 | 0.00 | 0.00 | 0.00 | 72 | 1017.6 |
| 20260507065029 | 8 | 244 | 4.8 | 11.3 | 0.00 | 0.00 | 0.00 | 72 | 1017.6 |
| 20260507064544 | 8 | 247 | 4.8 | 11.3 | 0.00 | 0.00 | 0.00 | 72 | 1017.6 |
| 20260507064029 | 8 | 360 | 6.4 | 11.3 | 0.00 | 0.00 | 0.00 | 72 | 1017.6 |
| 20260507063530 | 8 | 360 | 4.8 | 11.3 | 0.00 | 0.00 | 0.00 | 71 | 1017.7 |
| 20260507063045 | 8 | 253 | 4.8 | 11.3 | 0.00 | 0.00 | 0.00 | 71 | 1017.6 |
| 20260507062530 | 8 | 360 | 4.8 | 12.9 | 0.00 | 0.00 | 0.00 | 70 | 1017.7 |
| 20260507062032 | 8 | 360 | 6.4 | 12.9 | 0.00 | 0.00 | 0.00 | 70 | 1017.8 |
| 20260507061542 | 8 | 360 | 4.8 | 12.9 | 0.00 | 0.00 | 0.00 | 69 | 1017.8 |
| 20260507061028 | 8 | 360 | 4.8 | 12.9 | 0.00 | 0.00 | 0.00 | 68 | 1017.9 |
| 20260507060529 | 8 | 360 | 4.8 | 9.7 | 0.00 | 0.00 | 0.00 | 68 | 1017.8 |
| 20260507060050 | 8 | 360 | 4.8 | 12.9 | 0.00 | 0.00 | 0.00 | 67 | 1017.9 |
| 20260507055534 | 8 | 360 | 3.2 | 12.9 | 0.00 | 0.00 | 0.00 | 67 | 1017.9 |
| 20260507055029 | 8 | 360 | 4.8 | 12.9 | 0.00 | 0.00 | 0.00 | 67 | 1018.0 |
| 20260507054546 | 8 | 360 | 4.8 | 9.7 | 0.00 | 0.00 | 0.00 | 67 | 1018.0 |
| 20260507054029 | 8 | 360 | 4.8 | 9.7 | 0.00 | 0.00 | 0.00 | 67 | 1018.0 |
| 20260507053529 | 8 | 360 | 6.4 | 9.7 | 0.00 | 0.00 | 0.00 | 67 | 1018.0 |
| 20260507053052 | 8 | 360 | 6.4 | 9.7 | 0.00 | 0.00 | 0.00 | 67 | 1018.1 |
| 20260507052529 | 9 | 360 | 6.4 | 12.9 | 0.00 | 0.00 | 0.00 | 66 | 1018.0 |
| 20260507052029 | 9 | 360 | 6.4 | 12.9 | 0.00 | 0.00 | 0.00 | 66 | 1018.1 |
| 20260507051540 | 9 | 360 | 6.4 | 12.9 | 0.00 | 0.00 | 0.00 | 65 | 1018.1 |
| 20260507051032 | 10 | 360 | 6.4 | 12.9 | 0.00 | 0.00 | 0.00 | 65 | 1018.1 |
| 20260507050531 | 10 | 360 | 6.4 | 12.9 | 0.00 | 0.00 | 0.00 | 63 | 1018.1 |
| 20260507050039 | 10 | 360 | 6.4 | 12.9 | 0.00 | 0.00 | 0.00 | 63 | 1018.1 |
| 20260507045530 | 10 | 360 | 6.4 | 12.9 | 0.00 | 0.00 | 0.00 | 62 | 1018.0 |
| 20260507045030 | 10 | 360 | 6.4 | 16.1 | 0.00 | 0.00 | 0.00 | 62 | 1018.0 |
| 20260507044555 | 10 | 360 | 6.4 | 16.1 | 0.00 | 0.00 | 0.00 | 63 | 1018.1 |
| 20260507044029 | 10 | 360 | 8.0 | 16.1 | 0.00 | 0.00 | 0.00 | 61 | 1018.2 |
| 20260507043529 | 10 | 360 | 6.4 | 12.9 | 0.00 | 0.00 | 0.00 | 60 | 1018.2 |
| 20260507043044 | 10 | 360 | 6.4 | 12.9 | 0.00 | 0.00 | 0.00 | 60 | 1018.1 |
| 20260507042530 | 10 | 360 | 6.4 | 14.5 | 0.00 | 0.00 | 0.00 | 59 | 1018.0 |
| 20260507042029 | 10 | 360 | 8.0 | 14.5 | 0.00 | 0.00 | 0.00 | 57 | 1018.1 |
| 20260507041548 | 10 | 360 | 8.0 | 12.9 | 0.00 | 0.00 | 0.00 | 57 | 1018.1 |
| 20260507041029 | 10 | 360 | 6.4 | 9.7 | 0.00 | 0.00 | 0.00 | 59 | 1018.1 |
| 20260507040530 | 10 | 360 | 8.0 | 9.7 | 0.00 | 0.00 | 0.00 | 56 | 1018.1 |
| 20260507040042 | 10 | 360 | 4.8 | 8.0 | 0.00 | 0.00 | 0.00 | 58 | 1018.1 |
| 20260507035529 | 10 | 360 | 4.8 | 8.0 | 0.00 | 0.00 | 0.00 | 58 | 1018.2 |
| 20260507035030 | 10 | 360 | 4.8 | 9.7 | 0.00 | 0.00 | 0.00 | 58 | 1018.0 |
| 20260507034542 | 10 | 360 | 6.4 | 12.9 | 0.00 | 0.00 | 0.00 | 56 | 1018.2 |
| 20260507034029 | 10 | 360 | 8.0 | 12.9 | 0.00 | 0.00 | 0.00 | 54 | 1018.2 |
| 20260507033530 | 10 | 360 | 8.0 | 12.9 | 0.00 | 0.00 | 0.00 | 55 | 1018.3 |
| 20260507033039 | 10 | 360 | 6.4 | 12.9 | 0.00 | 0.00 | 0.00 | 56 | 1018.3 |
| 20260507032529 | 10 | 360 | 8.0 | 12.9 | 0.00 | 0.00 | 0.00 | 57 | 1018.3 |
| 20260507032033 | 10 | 360 | 4.8 | 9.7 | 0.00 | 0.00 | 0.00 | 57 | 1018.3 |
| 20260507031543 | 10 | 360 | 4.8 | 9.7 | 0.00 | 0.00 | 0.00 | 56 | 1018.3 |
| 20260507031029 | 9 | 360 | 4.8 | 8.0 | 0.00 | 0.00 | 0.00 | 58 | 1018.2 |
| 20260507030536 | 9 | 360 | 4.8 | 8.0 | 0.00 | 0.00 | 0.00 | 59 | 1018.2 |
| 20260507030045 | 10 | 360 | 4.8 | 8.0 | 0.00 | 0.00 | 0.00 | 58 | 1018.2 |
| 20260507025529 | 10 | 360 | 6.4 | 8.0 | 0.00 | 0.00 | 0.00 | 56 | 1018.2 |
| 20260507025029 | 9 | 360 | 4.8 | 8.0 | 0.00 | 0.00 | 0.00 | 59 | 1018.0 |
| 20260507024545 | 10 | 360 | 4.8 | 9.7 | 0.00 | 0.00 | 0.00 | 59 | 1018.1 |
| 20260507024031 | 10 | 360 | 6.4 | 9.7 | 0.00 | 0.00 | 0.00 | 56 | 1017.9 |
| 20260507023532 | 10 | 360 | 8.0 | 9.7 | 0.00 | 0.00 | 0.00 | 55 | 1017.9 |
| 20260507023040 | 10 | 360 | 6.4 | 9.7 | 0.00 | 0.00 | 0.00 | 56 | 1017.9 |
| 20260507022532 | 10 | 360 | 8.0 | 9.7 | 0.00 | 0.00 | 0.00 | 57 | 1017.9 |
| 20260507022031 | 10 | 360 | 6.4 | 9.7 | 0.00 | 0.00 | 0.00 | 57 | 1017.8 |
| 20260507021539 | 10 | 360 | 3.2 | 8.0 | 0.00 | 0.00 | 0.00 | 57 | 1017.8 |
| 20260507021030 | 10 | 360 | 4.8 | 8.0 | 0.00 | 0.00 | 0.00 | 56 | 1017.8 |
| 20260507020530 | 10 | 360 | 4.8 | 8.0 | 0.00 | 0.00 | 0.00 | 55 | 1017.9 |
| 20260507020048 | 10 | 360 | 3.2 | 6.4 | 0.00 | 0.00 | 0.00 | 57 | 1017.8 |
| 20260507015532 | 10 | 360 | 3.2 | 6.4 | 0.00 | 0.00 | 0.00 | 57 | 1017.8 |
| 20260507015029 | 11 | 360 | 3.2 | 6.4 | 0.00 | 0.00 | 0.00 | 54 | 1017.8 |
| 20260507014544 | 11 | 360 | 3.2 | 6.4 | 0.00 | 0.00 | 0.00 | 51 | 1017.8 |
| 20260507014032 | 11 | 360 | 1.6 | 8.0 | 0.00 | 0.00 | 0.00 | 50 | 1017.8 |
| 20260507013530 | 11 | 360 | 3.2 | 8.0 | 0.00 | 0.00 | 0.00 | 52 | 1017.7 |
| 20260507013049 | 12 | 360 | 1.6 | 4.8 | 0.00 | 0.00 | 0.00 | 49 | 1017.6 |
| 20260507012530 | 12 | 360 | 0.0 | 4.8 | 0.00 | 0.00 | 0.00 | 48 | 1017.6 |
| 20260507012030 | 12 | 331 | 1.6 | 4.8 | 0.00 | 0.00 | 0.00 | 46 | 1017.6 |
| 20260507011542 | 13 | 332 | 1.6 | 3.2 | 0.00 | 0.00 | 0.00 | 42 | 1017.6 |
| 20260507011030 | 13 | 332 | 0.0 | 3.2 | 0.00 | 0.00 | 0.00 | 43 | 1017.7 |
| 20260507010529 | 13 | 332 | 0.0 | 3.2 | 0.00 | 0.00 | 0.00 | 41 | 1017.7 |
| 20260507010045 | 13 | 0 | 0.0 | 1.6 | 0.00 | 0.00 | 0.00 | 41 | 1017.7 |
| 20260507005529 | 14 | 360 | 0.0 | 4.8 | 0.00 | 0.00 | 0.00 | 42 | 1017.8 |
| 20260507005029 | 14 | 0 | 0.0 | 4.8 | 0.00 | 0.00 | 0.00 | 40 | 1017.8 |
| 20260507004543 | 14 | 333 | 1.6 | 6.4 | 0.00 | 0.00 | 0.00 | 38 | 1017.7 |
| 20260507004031 | 14 | 333 | 1.6 | 9.7 | 0.00 | 0.00 | 0.00 | 37 | 1017.7 |
| 20260507003531 | 14 | 333 | 4.8 | 9.7 | 0.00 | 0.00 | 0.00 | 37 | 1017.6 |
| 20260507003045 | 14 | 324 | 4.8 | 11.3 | 0.00 | 0.00 | 0.00 | 36 | 1017.6 |
| 20260507002531 | 15 | 343 | 3.2 | 12.9 | 0.00 | 0.00 | 0.00 | 38 | 1017.7 |
| 20260507002030 | 15 | 328 | 4.8 | 16.1 | 0.00 | 0.00 | 0.00 | 37 | 1017.7 |
| 20260507001541 | 15 | 351 | 6.4 | 16.1 | 0.00 | 0.00 | 0.00 | 36 | 1017.6 |
| 20260507001029 | 15 | 339 | 6.4 | 16.1 | 0.00 | 0.00 | 0.00 | 36 | 1017.6 |
| 20260507000529 | 15 | 296 | 6.4 | 17.7 | 0.00 | 0.00 | 0.00 | 37 | 1017.6 |
| 20260507000053 | 15 | 321 | 9.7 | 17.7 | 0.00 | 0.00 | 0.00 | 36 | 1017.6 |
| 20260506235530 | 15 | 329 | 4.8 | 14.5 | 0.00 | 0.00 | 0.00 | 39 | 1017.7 |
| 20260506235030 | 15 | 360 | 8.0 | 14.5 | 0.00 | 0.00 | 0.00 | 39 | 1017.7 |
| 20260506234543 | 15 | 27 | 8.0 | 14.5 | 0.00 | 0.00 | 0.00 | 39 | 1017.7 |
| 20260506234033 | 15 | 5 | 4.8 | 16.1 | 0.00 | 0.00 | 0.00 | 39 | 1017.8 |
| 20260506233530 | 15 | 11 | 6.4 | 16.1 | 0.00 | 0.00 | 0.00 | 39 | 1017.8 |
| 20260506233045 | 15 | 5 | 6.4 | 17.7 | 0.00 | 0.00 | 0.00 | 38 | 1017.8 |
| 20260506232529 | 15 | 22 | 9.7 | 17.7 | 0.00 | 0.00 | 0.00 | 37 | 1017.8 |
| 20260506232032 | 15 | 16 | 9.7 | 17.7 | 0.00 | 0.00 | 0.00 | 38 | 1017.8 |
| 20260506231545 | 15 | 360 | 8.0 | 17.7 | 0.00 | 0.00 | 0.00 | 37 | 1017.8 |
| 20260506231030 | 15 | 13 | 6.4 | 17.7 | 0.00 | 0.00 | 0.00 | 39 | 1017.9 |
| 20260506230530 | 15 | 328 | 4.8 | 14.5 | 0.00 | 0.00 | 0.00 | 36 | 1017.9 |
| 20260506230047 | 15 | 313 | 3.2 | 20.9 | 0.00 | 0.00 | 0.00 | 37 | 1017.9 |
| 20260506225529 | 15 | 5 | 11.3 | 20.9 | 0.00 | 0.00 | 0.00 | 38 | 1017.9 |
| 20260506225029 | 15 | 343 | 12.9 | 22.5 | 0.00 | 0.00 | 0.00 | 36 | 1017.9 |
| 20260506224556 | 15 | 339 | 8.0 | 22.5 | 0.00 | 0.00 | 0.00 | 38 | 1017.9 |
| 20260506224032 | 15 | 355 | 9.7 | 19.3 | 0.00 | 0.00 | 0.00 | 39 | 1017.8 |
| 20260506223529 | 15 | 325 | 4.8 | 14.5 | 0.00 | 0.00 | 0.00 | 41 | 1017.8 |
| 20260506223045 | 15 | 355 | 3.2 | 14.5 | 0.00 | 0.00 | 0.00 | 38 | 1017.8 |
| 20260506222533 | 15 | 338 | 6.4 | 16.1 | 0.00 | 0.00 | 0.00 | 37 | 1017.9 |
| 20260506222049 | 15 | 319 | 4.8 | 17.7 | 0.00 | 0.00 | 0.00 | 38 | 1017.9 |
| 20260506221542 | 15 | 355 | 9.7 | 17.7 | 0.00 | 0.00 | 0.00 | 42 | 1017.9 |
| 20260506221029 | 15 | 5 | 8.0 | 16.1 | 0.00 | 0.00 | 0.00 | 37 | 1017.9 |
| 20260506220530 | 15 | 252 | 4.8 | 19.3 | 0.00 | 0.00 | 0.00 | 38 | 1018.0 |
| 20260506220041 | 15 | 333 | 8.0 | 24.1 | 0.00 | 0.00 | 0.00 | 40 | 1018.1 |
| 20260506215529 | 15 | 346 | 11.3 | 24.1 | 0.00 | 0.00 | 0.00 | 39 | 1018.1 |
| 20260506215030 | 15 | 29 | 6.4 | 19.3 | 0.00 | 0.00 | 0.00 | 40 | 1018.1 |
| 20260506214549 | 15 | 19 | 9.7 | 19.3 | 0.00 | 0.00 | 0.00 | 40 | 1018.3 |
| 20260506214029 | 15 | 324 | 8.0 | 19.3 | 0.00 | 0.00 | 0.00 | 38 | 1018.3 |
| 20260506213530 | 15 | 324 | 6.4 | 20.9 | 0.00 | 0.00 | 0.00 | 37 | 1018.3 |
| 20260506213044 | 15 | 277 | 6.4 | 20.9 | 0.00 | 0.00 | 0.00 | 40 | 1018.5 |
| 20260506212529 | 15 | 261 | 4.8 | 17.7 | 0.00 | 0.00 | 0.00 | 41 | 1018.5 |
| 20260506212033 | 15 | 351 | 8.0 | 17.7 | 0.00 | 0.00 | 0.00 | 38 | 1018.5 |
| 20260506211544 | 15 | 257 | 9.7 | 16.1 | 0.00 | 0.00 | 0.00 | 38 | 1018.6 |
| 20260506211030 | 15 | 336 | 9.7 | 24.1 | 0.00 | 0.00 | 0.00 | 38 | 1018.7 |
| 20260506210530 | 15 | 324 | 14.5 | 24.1 | 0.00 | 0.00 | 0.00 | 38 | 1018.9 |
| 20260506210043 | 15 | 309 | 6.4 | 16.1 | 0.00 | 0.00 | 0.00 | 43 | 1018.9 |
| 20260506205530 | 15 | 5 | 9.7 | 16.1 | 0.00 | 0.00 | 0.00 | 41 | 1018.9 |
| 20260506205030 | 14 | 349 | 3.2 | 20.9 | 0.00 | 0.00 | 0.00 | 42 | 1019.0 |
| 20260506204549 | 14 | 324 | 8.0 | 20.9 | 0.00 | 0.00 | 0.00 | 40 | 1019.1 |
| 20260506204029 | 14 | 344 | 9.7 | 20.9 | 0.00 | 0.00 | 0.00 | 40 | 1019.1 |
| 20260506203530 | 14 | 313 | 9.7 | 17.7 | 0.00 | 0.00 | 0.00 | 41 | 1019.1 |
| 20260506203051 | 14 | 335 | 6.4 | 19.3 | 0.00 | 0.00 | 0.00 | 40 | 1019.2 |
| 20260506202530 | 14 | 330 | 8.0 | 22.5 | 0.00 | 0.00 | 0.00 | 43 | 1019.3 |
| 20260506202030 | 14 | 331 | 11.3 | 22.5 | 0.00 | 0.00 | 0.00 | 44 | 1019.3 |
| 20260506201550 | 14 | 281 | 6.4 | 16.1 | 0.00 | 0.00 | 0.00 | 42 | 1019.4 |
| 20260506201030 | 15 | 274 | 9.7 | 17.7 | 0.00 | 0.00 | 0.00 | 42 | 1019.5 |
| 20260506200530 | 14 | 240 | 6.4 | 20.9 | 0.00 | 0.00 | 0.00 | 41 | 1019.6 |
| 20260506200042 | 15 | 340 | 12.9 | 24.1 | 0.00 | 0.00 | 0.00 | 38 | 1019.7 |
| 20260506195530 | 15 | 281 | 9.7 | 24.1 | 0.00 | 0.00 | 0.00 | 41 | 1019.6 |
| 20260506195030 | 15 | 331 | 12.9 | 24.1 | 0.00 | 0.00 | 0.00 | 45 | 1019.6 |
| 20260506194557 | 14 | 12 | 9.7 | 20.9 | 0.00 | 0.00 | 0.00 | 42 | 1019.6 |
| 20260506194033 | 13 | 19 | 8.0 | 22.5 | 0.00 | 0.00 | 0.00 | 41 | 1019.6 |
| 20260506193529 | 13 | 360 | 9.7 | 22.5 | 0.00 | 0.00 | 0.00 | 43 | 1019.6 |
| 20260506193043 | 13 | 347 | 14.5 | 22.5 | 0.00 | 0.00 | 0.00 | 40 | 1019.6 |
| 20260506192529 | 14 | 13 | 9.7 | 22.5 | 0.00 | 0.00 | 0.00 | 41 | 1019.7 |
| 20260506192030 | 14 | 34 | 9.7 | 22.5 | 0.00 | 0.00 | 0.00 | 39 | 1019.7 |
| 20260506191543 | 14 | 341 | 8.0 | 20.9 | 0.00 | 0.00 | 0.00 | 39 | 1019.8 |
| 20260506191030 | 14 | 5 | 6.4 | 19.3 | 0.00 | 0.00 | 0.00 | 43 | 1019.9 |
| 20260506190533 | 14 | 327 | 9.7 | 24.1 | 0.00 | 0.00 | 0.00 | 43 | 1019.7 |
| 20260506190044 | 13 | 348 | 8.0 | 24.1 | 0.00 | 0.00 | 0.00 | 42 | 1019.8 |
| 20260506185530 | 13 | 255 | 8.0 | 24.1 | 0.00 | 0.00 | 0.00 | 46 | 1019.6 |
| 20260506185032 | 13 | 312 | 6.4 | 20.9 | 0.00 | 0.00 | 0.00 | 41 | 1019.9 |
| 20260506184544 | 13 | 28 | 8.0 | 20.9 | 0.00 | 0.00 | 0.00 | 42 | 1019.8 |
| 20260506184030 | 13 | 328 | 9.7 | 25.7 | 0.00 | 0.00 | 0.00 | 40 | 1019.7 |
| 20260506183530 | 13 | 16 | 14.5 | 25.7 | 0.00 | 0.00 | 0.00 | 41 | 1019.8 |
| 20260506183039 | 13 | 360 | 12.9 | 20.9 | 0.00 | 0.00 | 0.00 | 41 | 1019.7 |
| 20260506182529 | 13 | 17 | 9.7 | 20.9 | 0.00 | 0.00 | 0.00 | 45 | 1019.8 |
| 20260506182030 | 13 | 360 | 11.3 | 19.3 | 0.00 | 0.00 | 0.00 | 43 | 1019.8 |
| 20260506181547 | 13 | 355 | 11.3 | 19.3 | 0.00 | 0.00 | 0.00 | 41 | 1019.9 |
| 20260506181031 | 12 | 342 | 6.4 | 22.5 | 0.00 | 0.00 | 0.00 | 43 | 1019.9 |
| 20260506180531 | 13 | 38 | 14.5 | 22.5 | 0.00 | 0.00 | 0.00 | 41 | 1020.0 |
| 20260506180050 | 13 | 5 | 3.2 | 14.5 | 0.00 | 0.00 | 0.00 | 43 | 1020.2 |
| 20260506175536 | 13 | 245 | 4.8 | 22.5 | 0.00 | 0.00 | 0.00 | 41 | 1020.3 |
| 20260506175032 | 13 | 12 | 9.7 | 22.5 | 0.00 | 0.00 | 0.00 | 43 | 1020.4 |
| 20260506174542 | 13 | 13 | 11.3 | 19.3 | 0.00 | 0.00 | 0.00 | 43 | 1020.4 |
| 20260506174032 | 12 | 331 | 8.0 | 19.3 | 0.00 | 0.00 | 0.00 | 46 | 1020.5 |
| 20260506173530 | 12 | 5 | 8.0 | 14.5 | 0.00 | 0.00 | 0.00 | 47 | 1020.5 |
| 20260506173045 | 12 | 335 | 4.8 | 17.7 | 0.00 | 0.00 | 0.00 | 40 | 1020.5 |
| 20260506172530 | 12 | 328 | 9.7 | 17.7 | 0.00 | 0.00 | 0.00 | 45 | 1020.5 |
| 20260506172030 | 12 | 26 | 12.9 | 17.7 | 0.00 | 0.00 | 0.00 | 44 | 1020.5 |
| 20260506171551 | 12 | 15 | 9.7 | 17.7 | 0.00 | 0.00 | 0.00 | 43 | 1020.6 |
| 20260506171058 | 12 | 9 | 11.3 | 17.7 | 0.00 | 0.00 | 0.00 | 45 | 1020.5 |
| 20260506170530 | 12 | 360 | 6.4 | 16.1 | 0.00 | 0.00 | 0.00 | 45 | 1020.4 |